Location: México DF
(19.4326°N, 99.1332°W)
Time: 05:51:18
(UTC+00:00)

ISS - Pass Details

Date: 11 July 2024
Orbit: 410 x 424 km, 51.6° (Epoch: 15 July)

Event Time Altitude Azimuth Distance (km) Brightness Sun altitude
Rises 11:17:41 0° 317° (NW) 2,347 -0.1 -11.0°
Reaches altitude 10° 11:19:47 10° 314° (NW) 1,486 -1.2 -10.5°
Maximum altitude 11:23:05 62° 233° (SW) 471 -3.8 -9.9°
Drops below altitude 10° 11:26:24 10° 151° (SSE) 1,491 -0.9 -9.2°
Sets 11:28:30 0° 148° (SSE) 2,355 0.1 -8.7°
